Location: Trois-Rivi�res
(46.3500°N, 72.5500°W)
Time: 15:23:04
(UTC-05:00)

Daily predictions for brighter satellites

Satellite Brightness Start Highest point End
(mag) Time Altitude Azimuth Time Altitude Azimuth Time Altitude Azimuth
Cosmos 2151 3.7 17:06:09 10° SSE 17:09:54 32° E 17:13:40 10° NNE
CZ-4 R/B 1.4 17:08:32 10° SSE 17:12:25 82° WSW 17:16:22 10° NNW
Cosmos 1726 2.4 17:09:03 10° N 17:12:45 48° ENE 17:16:24 10° SSE
Meteor 2-2 Rocket 4.3 17:07:27 10° N 17:13:07 90° ENE 17:18:47 10° S
SJ-12 4.1 17:09:00 10° SSE 17:13:08 83° WSW 17:17:17 10° NNW
Cosmos 1455 4.0 17:12:11 10° NE 17:13:59 13° ENE 17:15:48 10° E
Cosmos 1674 3.1 17:10:43 10° SSW 17:14:32 68° W 17:18:24 10° N
Lacrosse 5 3.2 17:10:26 10° WNW 17:14:47 28° NNW 17:19:08 10° NE
Resurs 01 Rocket 3.5 17:15:36 10° ENE 17:16:04 10° NE 17:16:32 10° NE
Cosmos 1844 4.4 17:11:16 10° NNW 17:16:59 63° WSW 17:22:41 10° S
Cosmos 2279 Rocket 4.3 17:12:01 10° N 17:17:58 45° ENE 17:23:54 10° SSE
SJ-6B 4.4 17:17:48 10° ESE 17:20:29 17° ENE 17:23:12 10° NNE
Cosmos 2228 Rocket 3.7 17:16:37 10° NNW 17:21:00 62° W 17:25:22 10° S
Cosmos 2346 Rocket 4.5 17:15:14 10° S 17:21:27 75° E 17:27:41 10° NNE
Meteor 1-27 4.4 17:21:43 10° N 17:27:28 56° ENE 17:33:12 10° SSE
Cosmos 1328 Rocket 4.5 17:24:04 10° NNW 17:28:25 54° W 17:32:45 10° S
DNEPR-1 R/B 4.4 17:22:34 10° SSW 17:29:23 85° SE 17:34:56 10° NE
Cosmos 2237 Rocket 2.3 17:24:35 10° S 17:30:07 63° ESE 17:35:43 10° NNE
CZ-2C R/B 3.1 17:25:58 10° S 17:30:50 60° W 17:35:36 10° NNW
Cosmos 1743 Rocket 4.0 17:26:30 10° SSW 17:30:57 69° W 17:35:27 10° N
Cosmos 2369 Rocket 3.9 17:28:07 10° N 17:30:57 14° NE 17:33:18 11° ENE
CENTAUR R/B 3.2 17:25:17 10° WSW 17:31:24 56° NW 17:38:24 10° NE
Cosmos 1151 Rocket 3.0 17:28:18 10° N 17:32:36 86° ENE 17:36:54 10° S
Cosmos 1300 2.6 17:30:16 10° N 17:34:07 85° E 17:37:57 10° S
Cosmos 332 Rocket 4.4 17:31:27 10° SW 17:36:13 59° WNW 17:41:04 10° NNE
COSMOS 2428 3.8 17:32:21 10° SW 17:37:49 45° NW 17:43:17 10° NNE
SL-16 R/B 2.9 17:32:58 10° SSE 17:37:56 33° ESE 17:42:55 10° NE
Cosmos 1125 Rocket 4.0 17:33:20 10° NNW 17:38:31 64° WSW 17:43:37 10° S
Lacrosse 4 Rocket 2.5 17:36:11 10° N 17:39:28 23° NE 17:42:02 13° E
Cosmos 1515 Rocket 4.4 17:35:49 10° NNW 17:40:12 55° W 17:44:32 10° S
Cosmos 44 3.4 17:36:40 10° SSW 17:41:55 84° SE 17:46:56 10° NE
COSMOS 2441 4.5 17:37:12 10° SSE 17:42:04 82° WSW 17:46:56 10° NNW
SL-14 R/B 3.2 17:41:11 10° S 17:45:07 80° E 17:49:09 10° NNE
Cosmos 1340 Rocket 3.0 17:42:40 10° S 17:46:27 47° E 17:50:14 10° NNE
Cosmos 2297 3.7 17:41:37 10° NNW 17:47:19 69° ENE 17:53:02 10° SE
Cosmos 1484 Rocket 2.8 17:43:47 10° SSE 17:47:44 89° WSW 17:51:47 10° NNW
SKYMED 2 3.7 17:43:46 10° NNE 17:48:03 55° E 17:52:18 10° S
ALOS 3.4 17:44:33 10° ESE 17:48:05 22° ENE 17:51:37 10° NNE
Cosmos 1805 Rocket 4.0 17:45:21 10° SSE 17:49:31 41° E 17:53:43 10° NNE
Meteor 2-10 3.9 17:44:59 10° N 17:50:07 83° ENE 17:55:22 10° SSE
Thor Agena Rocket 3.8 17:46:10 10° NNE 17:51:25 76° WNW 17:56:35 10° SSW
Cosmos 1184 Rocket 4.2 17:52:02 10° SE 17:54:20 20° E 17:54:20 20° E
Cosmos 2084 4.1 17:50:52 10° WSW 17:54:34 45° NW 17:57:54 12° NNE
Cosmos 1500 Rocket 4.4 17:52:15 10° SSW 17:56:28 51° WNW 18:00:45 10° N
Iridium 4 Rocket 4.2 17:54:39 10° SE 17:57:58 21° E 17:58:22 21° ENE
Meteor 1-28 Rocket 3.4 17:55:18 10° NNE 17:58:56 48° E 18:02:31 10° S
Cosmos 1869 4.3 17:55:36 10° NNE 17:59:01 25° ENE 18:02:25 10° SE
Cosmos 2058 2.8 17:55:20 10° S 17:59:26 85° E 18:03:34 10° N
Cosmos 1538 Rocket 4.4 17:57:19 10° S 18:02:17 42° ESE 18:06:34 14° NE
Cosmos 1461 3.2 17:58:30 10° SSW 18:02:31 46° ESE 18:04:37 24° ENE
NOSS 0 Rocket 4.2 17:57:12 10° SW 18:03:25 69° WNW 18:09:38 10° NNE
Cosmos 371 Rocket 4.4 18:00:05 10° SW 18:04:41 44° WNW 18:09:18 10° N
Sich 1 3.5 18:00:43 10° SSE 18:04:49 38° E 18:08:49 11° NNE
FENGYUN 3A 4.1 18:05:30 10° SE 18:10:22 36° ENE 18:15:15 10° N
METEOR-M 4.1 18:07:49 10° SSE 18:13:07 68° ENE 18:18:27 10° N
Cosmos 1633 Rocket 3.4 18:09:31 10° SSE 18:13:39 41° E 18:16:41 17° NNE
SL-19 R/B 4.5 18:08:18 10° SE 18:13:50 48° ENE 18:19:11 10° N
Aureole 1 Rocket 4.3 18:13:14 10° SSE 18:18:26 42° E 18:24:41 12° NNE
Cosmos 1980 4.4 18:13:11 10° SW 18:18:44 54° WNW 18:24:19 10° NNE
Abrixas 2.3 18:16:06 10° WSW 18:19:02 79° SSE 18:19:25 63° E
Cosmos 1356 Rocket 3.2 18:16:23 10° S 18:20:18 61° E 18:23:02 19° NNE
ATLAS 5 CENTAUR R/B 3.6 18:18:23 10° NNW 18:22:41 21° NNE 18:23:46 20° NE
Lacrosse 5 rocket 3.7 18:21:54 10° WNW 18:24:51 21° SW 18:27:55 10° S
NOAA 12 4.0 18:20:20 10° SSE 18:25:35 89° WSW 18:30:54 10° NNW
FREGAT/IRIS 2.4 18:25:16 10° SSE 18:28:19 79° E 18:31:23 10° N
Aureole 2 Rocket 3.8 18:25:23 10° SW 18:29:05 45° WNW 18:32:47 12° N
BREEZE-M DEB (TANK) 2.5 18:31:07 10° SW 18:33:03 48° S 18:33:03 48° S
Cosmos 1626 2.1 18:31:55 10° SSW 18:35:40 80° W 18:38:10 20° N
Cosmos 1707 Rocket 3.9 18:31:22 10° NNW 18:35:40 64° W 18:39:57 10° S
COSMO-SKYMED 1 3.5 18:31:52 10° N 18:36:04 48° WNW 18:40:14 10° SW
Cosmos 2219 Rocket 3.9 18:32:54 10° WSW 18:37:46 29° NW 18:42:38 10° N
FengYun 1-2 T 4.1 18:33:53 10° SSE 18:39:22 66° ENE 18:44:51 10° N
Cosmos 773 Rocket 3.9 18:35:12 10° S 18:40:16 60° ESE 18:42:09 37° NE
Cosmos 2333 Rocket 3.7 18:35:21 10° WSW 18:40:27 34° NW 18:45:36 10° NNE
BREEZE M DEB (TANK) 3.5 18:38:49 10° W 18:40:40 20° SW 18:40:57 19° SSW
Cosmos 1943 Rocket 3.7 18:36:48 10° N 18:39:28 18° NNE 18:39:28 18° NNE
Cosmos 304 Rocket 4.2 18:36:12 10° SSW 18:40:58 62° WNW 18:44:51 15° NNE
ATLAS 3B R/B 4.2 18:37:19 10° NW 18:42:25 20° NNE 18:44:15 18° NNE
Cosmos 1603 4.1 18:37:20 10° S 18:42:31 40° ESE 18:42:36 40° ESE
USA 215 3.3 18:37:35 15° SE 18:43:07 80° SW 18:49:43 10° NW
Orbus 7S? 4.3 18:43:36 10° NW 18:47:40 88° NE 18:53:53 20° SE
Cosmos 1666 Rocket 3.8 18:44:30 10° SSW 18:48:49 70° W 18:52:54 12° N
CZ-4C R/B 3.8 18:44:17 10° NNW 18:49:45 26° NNE 18:50:36 25° NE
Cosmos 1455 2.9 18:46:20 10° NNW 18:50:03 52° W 18:53:46 10° S
Resurs 01 Rocket 1.5 18:49:19 27° SSE 18:51:45 76° ENE 18:56:12 10° N
Resurs 1-3 3.9 18:55:11 52° NNE 18:55:11 52° NNE 18:58:40 10° N
SJ-6B 3.7 18:50:47 10° S 18:54:46 51° W 18:58:50 10° NNW
Lacrosse 5 3.2 18:54:47 10° NW 18:59:04 26° N 18:59:06 26° N
Cosmos 1627 Rocket 4.4 18:54:28 10° SSE 19:00:28 56° E 19:02:03 44° NE
Cosmos 2237 Rocket 4.1 19:10:01 10° WSW 19:14:38 26° NW 19:19:11 11° N
Cosmos 2369 Rocket 2.6 19:10:40 10° NNW 19:15:08 49° NNE 19:15:08 49° NNE
Lacrosse 4 Rocket 2.4 19:14:30 10° NW 19:18:21 42° WSW 19:18:28 42° WSW
SL-16 R/B 3.2 19:16:32 10° SW 19:21:54 43° NW 19:24:59 23° N
CENTAUR R/B 4.4 19:18:29 10° WNW 19:23:46 24° NNW 19:26:53 18° NNE
ALOS 3.1 19:20:42 10° S 19:25:13 48° W 19:29:45 10° NNW
Spot 2 Rocket 4.1 19:22:18 10° S 19:27:14 54° W 19:32:11 10° NNW
USA 229 DEB 3.6 19:21:39 10° SW 19:28:32 89° NW 19:29:43 65° NE
USA 229 3.6 19:21:44 10° SW 19:28:38 90° NNE 19:29:47 65° NE
Cosmos 2026 Rocket 3.9 19:23:28 10° S 19:29:04 73° SSE 19:29:04 73° SSE
ATLAS 5 CENTAUR R/B 3.8 20:02:37 10° NW 20:05:21 29° NNW 20:05:21 29° NNW
Cosmos 1943 Rocket 4.4 20:19:43 10° NNW 20:21:00 18° NNW 20:21:00 18° NNW
ATLAS 3B R/B 4.3 20:28:32 10° NNW 20:31:30 24° NNW 20:31:30 24° NNW
CZ-4C R/B 4.1 20:32:35 10° NW 20:35:48 31° NNW 20:35:48 31° NNW
